NOAA 16 DEB, 41307

Orbit data source: Space-Track

NOAA 16 DEB, 41307 is space debris in SSO originally from a launch on Thu, 21 Sep 2000 UTC launched from the Air Force Western Test Range (AFWTR). Debris objects in space refer to the collection of defunct objects orbiting the Earth. Examples of debris include non-operational satellites, rocket bodies, and fragments generated from explosions, collisions, or faulty payload assembly.

Loading next visibility...
Identifier
41307, 2000-055HK
Orbit
SSO
Last TLE update
2 days ago
Origin
Manufacturer
Unknown
Mission
Spacecraft
Bus & Motor
Unknown
Mass
Unknown
Launch date (UTC)
2000-09-21 (25 years ago)
Launch vehicle
Unknown
Launch site
Air Force Western Test Range (AFWTR)
Object type
Payload
Rocket body
Debris
Shape & HBR
Unknown
Radar Cross Section
Small (<0.1 m²)

Expand to show TLE details & history

TLE from 2 days ago
0 NOAA 16 DEB
1 41307U 00055HK  25127.36490460  .00030670  00000-0  58205-2 0  9992
2 41307  98.9145 279.8684 0005671  31.1277 329.0258 14.64117439485395
Epoch: 2025-05-07T08:45Z
Definitive object data (Epoch: 2025-05-07T08:45:27.757Z)
Latitude
-0.00003°
Longitude
-76.94805°
Altitude
679.446 km
Speed
7.519 km/s
True Right ascension
18h 39m 28s
True Declination
0° 00' 00"
Sunlit
Object was in full shadow at TLE epoch
Visualization TLE readout
Latitude
72.48543°
Longitude
-104.56502°
Altitude
689.382 km
Speed
7.52 km/s
Apparent Right ascension
23h 52m 26s
Apparent Declination
34° 24' 00"
Sunlit
Object is in daylight
Visualization observer readout
Local Sidereal Time
13:31:28
Azimuth
20.709° NNE
Elevation
-12.249°
Doppler factor
1
Orbital elements
Apogee altitude
681.021 km
Perigee altitude
673.019 km
Semi-major axis
7,055.157 km
Eccentricity
0.0005671
Inclination
98.9145°
RAAN
279.8684°
Arg. of periapsis
31.1277°
True anomaly
328.99234°
Mean anomaly
329.0258°
Eccentric anomaly
329.00907°
Mean motion
3.66255 °/min
BSTAR
0.0058205
Orbital period
98.29 mins
Loading maneuver chart data...
Loading SW <> Apogee altitude chart data...
Loading historical data...
Loading historical data...
Loading historical data...
Loading historical data...
Loading historical data...
Loading historical data...
Loading historical data...

NOAA 16 DEB Visibility forecast

Observer location: undefined°, undefined°

Span
Click to sort rows by Start time (UTC) header in descending order
Start Az.
Max El. time (UTC)
Max El. Az.
Max El.
End time (UTC)
End Az.
8 mins2025-05-09 10:04:49.144Z164.735° S2025-05-09 10:08:49.144Z348.796° N44.851°2025-05-09 10:12:49.144Z346.272° N
5 mins2025-05-09 22:02:49.144Z59.624° ENE2025-05-09 22:04:49.144Z89.983° E18.184°2025-05-09 22:07:49.144Z134.891° SE
6 mins2025-05-09 23:39:49.144Z347.047° N2025-05-09 23:42:49.144Z275.835° WNW32.319°2025-05-09 23:45:49.144Z225.904° WSW
|